#timestamp,LO_Frequency,Hit,StdDev 
1578700815.3,286047002.1,P
1578700835.1,286047002.4,N
1578700855.9,286047002.1,N
1578700875.7,286047000.3,N
1578700895.6,286047000.9,N
1578700915.4,286047000.3,N
1578700935.2,286047000.4,N
1578700955.1,286046998.6,N
1578700956.0,286046998.6,N
1578700975.8,286046998.5,N
1578700995.6,286046998.4,N
1578701015.5,286046999.4,N
1578701035.3,286046998.3,N
1578701055.2,286047002.3,N
1578701075.9,286046998.5,N
1578701095.7,286047000.8,N
1578701115.6,286047001.2,N
1578701135.4,286047000.9,N
1578701155.3,286047001.3,N
1578701175.1,286047003.8,N
1578701176.0,286047003.8,N
1578701195.8,286047002.4,N
1578701215.7,286047002.4,N
1578701235.5,286047000.7,N
1578701255.3,286046999.9,N
1578701275.2,286046999.9,N
1578701295.0,286047000.5,N
1578701295.9,286047000.5,N
1578701315.8,286047000.3,N
1578701335.6,286046998.1,N
1578701355.4,286046996.9,N
1578701375.3,286047001.1,N
1578701395.1,286046998.9,N
1578701415.9,286046999.4,N
1578701435.7,286046999.4,N
1578701455.5,286046999.0,N
1578701475.4,286047001.0,N
1578701495.2,286047000.3,N
1578701515.0,286047004.4,N
1578701515.9,286047004.4,N
1578701535.8,286047003.2,N
1578701555.6,286047001.7,N
1578701575.5,286047004.2,N
1578701595.3,286047005.2,N
1578701615.1,286047007.6,Y
1578701635.9,286047007.6,P
1578701655.7,286047003.4,N
1578701675.6,286047005.5,N
1578701695.4,286047005.1,N
1578701715.2,286047005.3,N
1578701735.1,286047007.1,Y
1578701736.0,286047007.1,P
1578701755.8,286047002.1,N
1578701775.6,286047001.7,N
1578701795.5,286047002.6,N
1578701815.3,286047000.5,N
1578701835.2,286047001.1,N
1578701855.9,286046998.4,N
1578701875.7,286046999.5,N
1578701895.6,286047000.3,N
1578701915.4,286047000.1,N
1578701935.2,286047000.9,N
1578701955.1,286047000.5,N
1578701956.0,286047000.5,N
1578701975.8,286046998.7,N
1578701995.7,286046997.2,N
1578702015.5,286046997.6,N
1578702035.3,286046995.4,N
1578702055.2,286046995.6,N
1578702075.0,286046995.3,N
1578702075.9,286046995.3,N
1578702095.7,286046995.7,N
1578702115.6,286046993.3,N
1578702135.4,286046998.0,N
1578702155.3,286046998.6,N
1578702175.1,286047011.9,Y
1578702195.8,286046999.7,P
1578702215.7,286047001.1,P
1578702235.5,286046997.3,P
1578702255.3,286046997.2,N
1578702275.2,286046996.1,N
1578702295.0,286046994.2,Y
1578702295.9,286046994.2,P
1578702315.8,286046995.4,N
1578702335.6,286046997.6,N
1578702355.4,286046998.4,N
1578702375.3,286047000.8,N
1578702395.1,286047000.5,N
1578702415.9,286047001.6,N
1578702435.7,286047002.7,N
1578702455.5,286046998.9,N
1578702475.4,286046997.5,N
1578702495.2,286046997.3,N
1578702515.1,286046996.8,N
1578702516.0,286046996.8,N
1578702535.8,286046997.2,N
1578702555.6,286046996.5,N
1578702575.5,286046999.6,N
1578702595.3,286046996.5,N
1578702615.1,286046999.5,N
1578702635.9,286046996.7,N
1578702655.7,286046999.3,N
1578702675.6,286046996.7,N
1578702695.4,286046995.2,N
1578702715.2,286046996.8,N
1578702735.1,286046999.4,N
1578702736.0,286046999.4,N
1578702755.8,286046996.5,N
1578702775.6,286046998.0,N
1578702795.5,286046997.8,N
1578702815.3,286046996.3,N
1578702835.2,286046994.6,N
1578702855.9,286046993.7,Y
1578702875.7,286046995.3,P
1578702895.6,286046995.8,P
1578702915.4,286046995.6,P
1578702935.2,286046997.3,N
1578702955.1,286047000.1,N
1578702956.0,286047000.1,N
1578702975.8,286047002.8,N
1578702995.7,286047002.6,N
1578703015.5,286047000.7,N
1578703035.3,286047000.5,N
1578703055.2,286047001.1,N
1578703075.0,286047001.0,N
1578703075.9,286047001.0,N
1578703095.8,286046998.1,N
1578703115.6,286046999.4,N
1578703135.4,286046996.6,N
1578703155.3,286046999.9,N
1578703175.1,286047001.3,N
1578703176.0,286047001.3,N
1578703195.8,286047002.4,N
1578703215.7,286047001.5,N
1578703235.5,286047002.5,N
1578703255.3,286047001.6,N
1578703275.2,286047001.9,N
1578703295.0,286047002.4,N
1578703295.9,286047002.4,N
1578703315.8,286047002.3,N
1578703335.6,286047004.2,N
1578703355.4,286047004.2,N
1578703375.3,286047002.1,N
1578703395.1,286046999.7,N
1578703415.9,286046999.3,N
1578703435.7,286046996.6,N
1578703455.5,286046996.7,N
1578703475.4,286046999.6,N
1578703495.2,286047000.9,N
1578703515.1,286046996.5,N
1578703516.0,286046996.5,N
1578703535.8,286046996.6,N
1578703555.6,286046999.5,N
1578703575.5,286046999.3,N
1578703595.3,286046998.8,N
1578703615.1,286047000.5,N
1578703635.9,286047000.1,N
1578703655.7,286047000.2,N
1578703675.6,286047000.4,N
1578703695.4,286046999.2,N
1578703715.2,286046999.3,N
1578703735.1,286046999.2,N
1578703736.0,286046999.2,N
1578703755.8,286046996.9,N
1578703775.7,286046996.7,N
1578703795.5,286046999.0,N
1578703815.3,286047000.2,N
1578703835.2,286047000.6,N
1578703855.0,286047000.4,N
1578703855.9,286047000.4,N
1578703875.7,286046999.8,N
1578703895.6,286047003.2,N
1578703915.4,286047003.6,N
1578703935.3,286047004.2,N
1578703955.1,286047004.9,N
1578703956.0,286047004.9,N
1578703975.8,286047005.7,N
1578703995.7,286047005.2,N
1578704015.5,286047004.8,N
1578704035.4,286047007.0,N
1578704055.2,286047006.4,N
1578704075.0,286047008.4,N
1578704075.9,286047008.4,N
1578704095.8,286047007.7,N
1578704115.6,286047006.6,N
1578704135.4,286047008.0,N
1578704155.3,286047009.2,N
1578704175.1,286047008.2,N
1578704195.9,286047006.1,N
1578704215.7,286047006.6,N
1578704235.5,286047008.1,N
1578704255.4,286047006.1,N
1578704275.2,286047006.6,N
1578704295.0,286047007.4,N
1578704295.9,286047007.4,N
1578704315.8,286047006.6,N
1578704335.6,286047007.0,N
1578704355.5,286047008.9,Y
1578704375.3,286047002.4,P
1578704395.1,286046998.6,N
